Regional Weather Roundup
Issued by NWS

Home | Current Version | Previous Version | Text Only | Print | Product List | Glossary Off
Versions: 1 2 3 4 5 6 7 8 9 10 11 12 13 14 15 16 17 18 19 20 21 22 23 24 25 26 27 28 29 30 31 32 33 34 35 36 37 38 39 40 41 42 43 44 45 46

000
ASUS45 KBOU 250607
RWRCO

WEATHER ROUNDUP FOR COLORADO
NATIONAL WEATHER SERVICE DENVER/BOULDER CO
1100 PM MST WED DEC 24 2014

NOTE: "FAIR" INDICATES FEW OR NO CLOUDS BELOW 12000 FEET WITH NO
SIGNIFICANT WEATHER AND/OR OBSTRUCTIONS TO VISIBILITY.

COZ001>005-013-030-031-250700-
...NORTHWEST COLORADO...

CITY           SKY/WX    TMP DP  RH WIND       PRES   REMARKS
CRAIG          CLOUDY    29  15  56 E12       29.61F WCI  19
HAYDEN         CLOUDY    25  14  63 SE14      29.62F WCI  13
MEEKER         CLOUDY    32  15  49 W18       29.60F WCI  20
MOUNT WERNER   NOT AVBL
STEAMBOAT SPGS CLOUDY    17  14  89 SE6       29.64F WCI   8
WALDEN         MOCLDY    23  14  68 SE10      29.58F WCI  12
$$

COZ006>008-011-250700-
...WEST CENTRAL VALLEYS...

CITY           SKY/WX    TMP DP  RH WIND       PRES   REMARKS
GRAND JUNCTION CLOUDY    25  20  81 NE3       29.72F
MONTROSE       CLOUDY    27  19  72 W3        29.71F
EAGLE          PTCLDY    16  10  79 CALM      29.73F
RIFLE          CLOUDY    25  16  68 CALM      29.70F
DELTA          CLOUDY    28  19  67 CALM      29.72F
NUCLA          CLOUDY    30  19  64 N3        29.77R
$$

COZ017>023-064>068-250700-
...SOUTHWEST COLORADO...

CITY           SKY/WX    TMP DP  RH WIND       PRES   REMARKS
DURANGO        CLOUDY    25  14  63 E3        29.82F
CORTEZ         CLEAR     28  21  75 NE5       29.78F WCI  23
PAGOSA SPRINGS CLOUDY    15   7  68 CALM      29.86F
TELLURIDE      CLOUDY    32  17  54 E7G16     29.74F WCI  26
WOLF CREEK PAS PTCLDY    10   1  67 MISG      29.80F
$$

COZ009-010-012-014-032>034-037-058>063-250700-
...CENTRAL COLORADO...

CITY           SKY/WX    TMP DP  RH WIND       PRES   REMARKS
ASPEN          MOCLDY    19  13  77 SE3       29.66F
BUENA VISTA    PTCLDY    24   9  52 S8        29.65F WCI  16
COPPER MTN     CLOUDY    23  12  63 S13G22    29.69F WCI  11
BERTHOUD PASS  FAIR      14  10  85 MISG      29.62R
COTTONWOOD PAS PTCLDY    32  10  40 NW21G35   29.65F WCI  20
GUNNISON       MOCLDY     0 -13  55 NE7       29.81F WCI -13
KREMMLING      CLOUDY     3   0  85 CALM      29.69F
LEADVILLE      MOCLDY    20   7  57 CALM      29.65F
MONARCH PASS   PTCLDY    14  10  85 MISG      29.80F
SALIDA         PTCLDY    35   9  34 SW18G24   29.72F WCI  25
SUNLIGHT       CLOUDY   N/A N/A N/A MISG      29.67F
WILKERSON PASS PTCLDY    18  10  73 SW18G33   29.62F WCI   2
$$

COZ069>075-250700-
...SAN LUIS VALLEY/SANGRE DE CRISTO MOUNTAINS...

CITY           SKY/WX    TMP DP  RH WIND       PRES   REMARKS
ALAMOSA        MOCLDY    10   3  73 NW6       29.78F WCI   0
LA VETA PASS   PTCLDY    18   9  68 MISG      29.67S
SAGUACHE       PTCLDY     5   0  78 NW13      29.80F WCI -12
$$

COZ035-036-038>040-250700-
...NORTHERN COLORADO FRONT RANGE...

CITY           SKY/WX    TMP DP  RH WIND       PRES   REMARKS
DENVER INTL AP MOCLDY    41  16  36 SW20      29.48S
DMNS CITY PARK   N/A     37  17  44 S5        29.48F
AURORA         MOCLDY    35  17  47 S13       29.50S WCI  27
FRONT RANGE AP NOT AVBL
ERIE MUNI ARPT   N/A     49  13  24 W13G20    29.46F
BOULDER MUN AP PTCLDY    46  18  31 SW12      29.45F
CENTENNIAL     MOCLDY    39  15  37 SW7       29.50S
BROOMFIELD     PTCLDY    46  14  27 W26G35    29.48S
FORT COLLINS   CLOUDY    30  16  55 NE8       29.47F WCI  23
LONGMONT       CLOUDY    37  16  42 N13       29.48S
$$

COZ041-046-047-076>085-087-088-250700-
...PIKES PEAK/PALMER DIVIDE AND SOUTHERN FOOTHILLS...

CITY           SKY/WX    TMP DP  RH WIND       PRES   REMARKS
COLO. SPRINGS  CLOUDY    38  13  35 SE8       29.54F
A. F. ACADEMY  MOCLDY    39   7  26 NW9       29.54S
ELLICOTT       NOT AVBL
FALCON         MOCLDY    34  12  40 W5        29.56S WCI  30
FORT CARSON    MOCLDY    41  15  35 SW16      29.51F
LIMON          CLOUDY    29  19  66 CALM      29.51F
MONUMENT HILL  MOCLDY    37  12  35 SW15      29.55S
TRINIDAD       CLOUDY    35  19  52 NW14      29.58F WCI  26
$$

COZ042>045-048>051-090-091-250700-
...NORTHEAST COLORADO...

CITY           SKY/WX    TMP DP  RH WIND       PRES   REMARKS
GREELEY ARPT   CLOUDY    25  10  54 N5        29.46F WCI  19
AKRON          CLOUDY    37  22  54 SW14      29.45F
BURLINGTON     CLOUDY    34  21  59 S13       29.50F WCI  25
WRAY           CLOUDY    34  23  63 S6        29.49F WCI  29
STERLING       CLOUDY    27  23  86 NW5       29.47S WCI  21
HOLYOKE        CLOUDY    32  27  80 S7        29.48F WCI  26
FORT MORGAN    CLOUDY    30  23  75 NW5       29.47S WCI  25
$$

COZ086-089-092>099-250700-
...SOUTHEAST COLORADO...

CITY           SKY/WX    TMP DP  RH WIND       PRES   REMARKS
PUEBLO         MOCLDY    26  19  74 NW9       29.54F WCI  17
LA JUNTA       CLOUDY    41  20  43 W16       29.53F
LAMAR          CLOUDY    29  21  72 SW8       29.52F WCI  21
SPRINGFIELD      N/A     32  20  61 SW12      29.56F WCI  23
$$



USA.gov is the U.S. government's official web portal to all federal, state and local government web resources and services.